Date,TemperatureHighF,TemperatureAvgF,TemperatureLowF,DewpointHighF,DewpointAvgF,DewpointLowF,HumidityHigh,HumidityAvg,HumidityLow,PressureMaxIn,PressureMinIn,WindSpeedMaxMPH,WindSpeedAvgMPH,GustSpeedMaxMPH,PrecipitationSumIn
2013-1-1,30.0,24.9,19.0,26.5,17.5,-16.4,87,74,11,28.71,28.61,7,2,47,17.61
2013-1-2,24.3,19.7,17.2,12.3,9.3,6.8,69,64,58,28.85,28.67,5,1,8,0.00
2013-1-3,27.5,24.0,14.4,18.5,13.4,6.5,73,64,47,28.82,28.69,8,3,12,0.00
2013-1-4,33.6,26.5,23.9,18.6,14.4,10.7,74,60,45,28.84,28.69,11,4,18,0.00
2013-1-5,33.3,28.2,24.3,22.1,18.5,13.7,73,67,57,28.99,28.75,6,1,11,0.00
2013-1-6,36.0,32.7,30.4,29.7,26.5,21.2,89,78,64,28.82,28.60,8,2,11,0.03
2013-1-7,34.3,28.8,21.0,28.1,22.1,16.1,89,76,62,29.06,28.82,7,1,11,0.01
2013-1-8,45.7,26.6,14.9,25.2,17.4,10.1,85,70,39,28.97,28.88,4,0,7,0.10
2013-1-9,49.5,36.9,25.2,35.5,26.8,11.8,86,67,51,29.09,28.77,8,2,16,0.07
2013-1-10,43.5,31.5,19.0,30.1,22.6,14.2,89,71,50,29.24,28.95,4,0,8,0.00
2013-1-11,45.9,41.9,38.3,44.5,34.9,21.7,98,78,49,28.95,28.56,8,2,11,0.36
2013-1-12,60.4,49.7,43.7,53.6,47.8,43.2,99,94,74,28.72,28.62,6,1,10,0.00
2013-1-13,69.6,57.2,50.2,56.3,52.6,48.1,99,86,61,28.62,28.47,10,2,15,0.07
2013-1-14,53.8,30.9,25.9,52.9,24.3,16.4,97,77,61,29.07,28.55,11,1,15,0.02
2013-1-15,34.2,27.4,25.0,18.5,15.9,12.7,72,62,46,29.04,28.75,4,0,5,0.00
2013-1-16,35.6,30.9,27.5,28.1,22.3,16.7,80,70,59,28.76,28.50,8,1,17,0.00
2013-1-17,34.9,31.3,27.5,25.4,21.8,17.3,78,68,52,28.79,28.60,7,2,11,0.00
2013-1-18,30.6,25.6,16.2,13.2,9.4,2.1,56,50,42,29.08,28.77,8,3,14,0.00
2013-1-19,52.7,41.2,30.4,26.0,19.4,12.9,51,42,32,28.78,28.37,11,4,19,0.00
2013-1-20,45.3,28.0,19.2,28.9,14.1,4.2,75,56,42,28.77,28.32,14,5,25,0.00
2013-1-21,22.6,16.7,9.7,11.4,5.5,-2.7,72,61,40,28.72,28.52,9,3,15,0.00
2013-1-22,9.7,6.0,3.9,0.3,-4.5,-10.2,66,60,48,28.83,28.61,11,4,21,0.00
2013-1-23,14.7,7.4,2.5,-0.3,-3.7,-5.9,67,59,43,28.84,28.67,6,2,11,0.00
2013-1-24,23.0,9.4,-2.9,5.7,-3.4,-12.3,70,56,26,29.15,28.66,8,1,11,0.00
2013-1-25,18.0,9.7,-2.7,5.8,-0.4,-12.1,70,62,51,29.12,28.64,4,1,6,0.00
2013-1-26,29.7,19.4,13.1,17.3,11.0,5.5,79,70,52,29.06,28.69,4,0,7,0.00
2013-1-27,35.8,23.6,14.0,15.7,10.9,7.6,77,60,35,29.14,28.96,4,1,8,0.00
2013-1-28,44.2,36.9,25.7,43.5,34.9,16.3,99,92,65,28.96,28.59,8,2,16,0.50
2013-1-29,57.4,47.1,35.4,53.7,46.1,34.6,99,96,77,28.71,28.42,6,1,13,0.12
2013-1-30,61.3,56.2,42.3,55.6,50.4,30.8,95,81,67,28.75,27.85,12,3,25,1.01
2013-1-31,41.5,26.8,19.6,36.8,19.0,6.7,88,73,46,28.39,27.90,16,1,24,0.10
2013-2-1,29.5,13.8,9.1,20.2,4.1,-3.2,76,65,54,28.90,28.05,0,0,0,0.00
2013-2-2,19.6,14.1,7.7,13.0,5.0,-4.8,77,66,52,28.89,28.58,0,0,0,0.00
2013-2-3,24.3,18.2,15.1,15.5,9.5,2.9,81,69,51,28.58,28.45,0,0,0,0.00
2013-2-4,26.2,18.6,13.3,14.3,10.5,6.6,80,71,54,28.66,28.52,0,0,0,0.00
2013-2-5,32.7,22.0,15.3,19.2,14.2,9.7,82,72,56,28.57,28.47,4,0,6,0.00
2013-2-6,37.4,22.8,6.6,21.0,10.6,-1.5,84,62,25,28.98,28.56,5,1,10,0.05
2013-2-7,52.0,26.8,5.0,23.7,13.8,-2.9,76,59,31,28.95,28.61,8,2,11,0.12
2013-2-8,34.2,27.5,17.6,31.3,21.3,9.8,90,77,67,28.80,28.43,8,1,13,0.01
2013-2-9,20.3,16.8,16.0,10.8,8.9,7.6,73,71,65,29.02,28.80,0,0,0,0.00
2013-2-10,52.2,35.8,12.9,21.6,14.3,6.5,75,44,22,28.94,28.57,6,2,11,0.14
2013-2-11,52.9,38.6,31.5,44.3,30.8,20.2,99,75,51,28.57,28.30,11,4,26,0.10
2013-2-12,31.6,28.6,18.5,23.2,19.6,-14.3,82,69,12,28.69,28.53,8,3,42,20.01
2013-2-13,46.6,30.0,18.7,24.8,20.8,6.5,85,70,37,28.93,28.36,4,0,5,20.01
2013-2-14,37.2,28.9,17.8,32.8,24.4,12.4,90,83,72,28.54,28.46,10,2,16,0.11
2013-2-15,36.0,30.6,21.9,26.8,20.6,12.7,79,66,49,28.72,28.52,8,2,14,0.01
2013-2-16,30.4,19.9,8.1,14.8,5.7,-5.5,75,55,28,28.71,28.56,5,1,8,0.00
2013-2-17,24.4,15.3,7.7,12.5,4.9,-1.9,76,63,46,28.85,28.55,7,1,11,0.00
2013-2-18,40.5,18.7,-0.9,15.6,3.0,-9.4,75,52,27,28.89,28.61,7,1,11,0.04
2013-2-19,38.8,29.0,17.2,37.1,23.4,6.8,96,80,62,28.53,28.27,10,2,16,0.11
2013-2-20,22.3,15.9,14.4,12.9,7.4,4.8,75,69,59,28.68,28.53,0,0,0,0.00
2013-3-14,35.6,28.3,19.0,19.2,15.0,11.8,77,58,48,28.81,28.75,9,2,14,0.03
2013-3-15,36.9,33.0,28.0,31.2,25.5,19.5,86,74,67,28.60,28.49,8,2,11,0.00
2013-3-16,35.6,29.5,21.0,31.3,26.0,16.9,98,87,81,28.65,28.35,4,0,6,0.03
2013-3-17,27.0,23.1,19.4,23.1,19.1,15.1,87,84,80,28.75,28.65,0,0,0,0.00
2013-3-18,28.2,26.4,25.5,16.9,15.9,14.7,65,64,62,28.69,28.61,10,5,14,0.00
2013-3-19,33.4,27.9,24.1,27.3,22.4,18.7,82,79,76,28.53,28.35,7,2,10,0.03
2013-3-20,36.5,27.9,22.5,26.6,16.9,12.6,85,63,44,28.54,28.49,10,3,14,0.07
2013-3-21,23.2,17.5,13.6,11.3,8.7,7.0,76,68,55,28.47,28.44,5,2,9,0.00
2013-3-22,27.9,24.4,22.5,20.4,19.1,16.1,86,80,66,28.56,28.48,4,2,10,0.00
2013-3-23,43.9,30.1,18.9,25.3,19.0,11.5,85,64,40,28.71,28.61,4,1,7,0.10
2013-3-24,35.8,20.3,13.6,21.5,13.8,8.4,85,76,51,28.69,28.53,6,0,9,0.00
2013-3-25,29.8,29.8,29.7,27.9,27.7,27.5,93,92,91,28.17,28.16,4,1,5,0.00
2013-3-26,46.0,36.6,27.5,32.6,28.5,23.0,89,74,49,28.70,28.48,7,2,12,0.02
2013-3-27,39.4,32.7,31.1,28.5,27.3,24.1,88,81,57,28.75,28.67,7,2,11,0.00
2013-3-28,36.9,32.5,30.0,31.6,29.9,28.4,94,90,81,28.85,28.76,2,0,5,0.00
2013-3-29,30.9,30.4,30.2,29.4,28.9,28.7,94,94,94,28.88,28.87,0,0,0,0.00
2013-3-30,38.3,25.1,20.7,29.9,21.2,17.1,90,85,75,28.87,28.85,0,0,0,0.00
2013-3-31,51.4,42.3,38.3,29.8,25.3,23.5,56,51,44,28.52,28.44,6,1,9,0.00
2013-4-1,37.9,31.9,28.0,34.1,14.4,8.8,87,49,32,28.85,28.38,8,3,13,23.68
2013-4-2,32.5,26.4,22.8,27.1,16.9,10.1,86,67,55,28.77,28.68,8,3,12,0.01
2013-4-3,23.9,23.6,23.4,14.2,13.1,12.5,66,64,62,28.88,28.85,2,1,3,0.00
2013-4-4,59.7,41.3,13.3,19.3,13.4,6.9,86,39,19,28.97,28.67,5,1,8,0.00
2013-4-5,49.1,40.5,31.6,32.7,26.3,18.1,66,57,46,28.69,28.59,5,1,9,0.00
2013-4-6,52.5,39.5,17.2,23.2,15.9,12.5,87,44,21,28.92,28.66,6,1,8,0.00
2013-4-7,73.4,61.1,44.1,47.7,39.8,30.1,78,47,28,28.69,28.48,11,4,24,0.00
2013-4-8,73.6,59.4,28.8,50.3,44.2,28.5,99,60,42,28.72,28.52,8,2,13,0.00
2013-4-9,45.9,45.0,44.8,44.6,44.2,44.0,97,97,94,28.79,28.74,2,1,4,0.00
2013-4-10,67.6,58.6,51.4,60.4,55.8,51.2,99,91,76,28.61,28.57,4,1,11,0.00
2013-4-11,44.6,44.1,43.9,43.9,43.5,43.4,98,98,97,28.53,28.49,5,1,8,0.00
2013-4-12,59.4,47.6,38.7,59.1,45.2,33.1,99,91,78,28.51,28.15,9,2,14,0.26
2013-4-13,45.0,39.7,34.3,38.3,33.0,29.0,92,77,60,28.65,28.48,11,3,15,0.05
2013-4-14,45.1,38.2,28.4,34.1,30.5,25.8,95,74,61,28.79,28.65,6,1,8,0.00
2013-4-15,57.7,51.1,48.4,41.2,38.0,36.0,64,61,53,28.75,28.68,4,1,8,0.00
2013-4-16,74.1,58.1,49.3,62.5,54.4,49.0,99,88,65,28.88,28.69,9,2,17,0.05
2013-4-17,72.3,56.2,42.4,39.1,35.7,30.3,79,50,23,28.96,28.86,7,2,10,0.00
2013-4-18,85.3,73.7,58.8,62.7,59.4,55.6,90,63,45,28.66,28.47,9,3,17,0.00
2013-4-19,68.2,52.2,39.6,61.1,44.7,28.6,99,76,62,28.49,28.14,11,5,22,0.27
2013-4-20,34.0,34.0,34.0,27.2,27.2,27.2,76,76,76,28.54,28.53,5,4,9,0.00
2013-4-21,57.6,41.3,19.2,31.8,21.8,15.4,96,51,22,29.25,29.13,8,2,11,0.01
2013-4-22,68.9,55.1,34.0,33.1,28.4,23.1,66,38,19,29.08,28.93,8,2,11,0.00
2013-4-23,74.1,51.5,37.4,39.1,32.7,25.9,81,53,23,28.94,28.69,7,2,11,0.00
2013-4-24,60.1,48.3,34.0,54.0,46.3,33.5,99,93,75,28.76,28.44,8,2,14,0.76
2013-4-25,37.6,32.5,30.0,37.3,32.2,29.8,99,99,97,28.86,28.84,0,0,0,0.00
2013-4-26,59.4,43.9,26.1,46.9,34.0,25.6,99,73,33,29.11,29.03,4,1,7,0.02
2013-4-27,79.5,62.0,28.8,44.6,31.6,24.9,99,41,14,29.03,28.90,5,1,8,0.26
2013-4-28,63.9,57.2,49.8,53.0,45.7,40.0,98,67,50,28.77,28.70,7,2,11,0.05
2013-4-29,68.7,58.0,49.5,58.4,54.6,49.2,99,89,67,28.70,28.61,5,1,12,0.04
2013-4-30,80.1,62.6,49.6,57.7,53.2,49.4,99,75,41,28.87,28.69,7,2,11,0.01
2013-5-1,86.0,66.1,51.4,53.4,49.0,38.3,99,60,27,29.00,28.87,7,2,11,0.00
2013-5-2,86.0,66.3,50.0,45.0,34.8,20.6,61,35,12,29.03,28.90,6,2,10,0.00
2013-5-3,81.7,65.4,51.1,46.1,40.1,32.9,68,43,21,28.93,28.84,8,2,15,0.00
2013-5-4,79.9,62.5,47.1,44.5,40.5,31.6,85,50,19,28.89,28.77,6,2,11,0.00
2013-5-5,86.4,62.7,43.3,45.7,33.8,16.5,95,43,11,28.83,28.71,11,2,14,0.00
2013-5-6,84.7,61.3,39.9,51.7,40.8,27.6,86,52,22,28.77,28.66,5,1,8,0.00
2013-5-7,84.0,64.2,49.8,55.9,51.7,46.8,99,69,32,28.75,28.64,7,1,10,0.00
2013-5-8,75.9,60.5,52.9,62.6,55.3,50.9,99,84,50,28.70,28.60,7,0,10,0.26
2013-5-9,84.4,65.6,48.2,61.4,52.1,37.9,99,67,23,28.68,28.59,6,1,8,0.01
2013-5-10,77.9,61.7,46.6,64.1,56.4,44.7,99,85,61,28.67,28.45,10,1,18,0.51
2013-5-11,59.5,48.9,42.4,59.3,47.6,42.2,99,95,85,28.51,28.42,6,1,11,0.10
2013-5-12,53.2,41.8,30.7,48.6,34.7,26.8,99,78,43,28.69,28.44,58,3,58,29.07
2013-5-13,53.8,39.1,26.8,30.9,26.9,24.4,93,64,35,28.82,28.67,7,1,11,0.02
2013-5-14,56.5,40.5,25.3,43.7,34.5,24.7,99,82,36,28.81,28.55,5,1,11,0.07
2013-5-15,86.5,64.1,44.8,64.8,51.5,40.3,98,68,33,28.56,28.37,10,2,16,0.11
2013-5-16,84.7,65.1,43.9,63.3,46.3,38.1,99,61,22,28.68,28.47,8,1,11,0.22
2013-5-17,85.6,67.5,39.4,54.4,43.7,36.5,99,49,21,28.84,28.76,5,1,7,0.00
2013-5-18,91.8,68.2,52.7,59.0,49.5,44.2,92,56,22,28.85,28.74,5,1,8,0.00
2013-5-19,87.6,69.9,57.2,65.9,61.1,56.9,99,77,45,28.80,28.68,4,1,8,0.00
2013-5-20,93.2,73.7,57.6,69.9,63.9,57.3,99,76,42,28.74,28.59,4,1,8,29.52
2013-5-21,92.5,77.4,63.5,72.7,66.4,61.3,99,73,41,28.64,28.51,9,1,12,0.07
2013-5-22,90.9,75.8,64.6,70.4,64.8,58.3,99,72,42,28.56,28.43,8,2,15,0.23
2013-5-23,80.2,63.9,44.1,67.5,60.2,43.5,99,89,53,28.62,28.46,6,2,11,0.58
2013-5-24,47.8,41.3,34.2,43.5,37.8,33.4,99,88,67,28.92,28.62,6,2,11,0.02
2013-5-25,62.4,42.4,28.6,50.3,34.1,28.3,99,78,37,28.95,28.91,7,1,14,0.00
2013-5-29,89.6,73.7,62.1,73.2,67.4,61.0,99,83,43,28.77,28.43,7,1,11,1.59
2013-5-30,93.6,75.5,61.0,70.4,64.9,60.2,99,73,40,28.86,28.77,5,1,8,0.02
2013-5-31,93.0,74.1,56.7,70.0,63.5,56.4,99,75,41,28.81,28.68,7,1,10,0.02
2013-6-1,89.6,73.3,64.9,71.2,66.9,64.4,99,82,51,28.73,28.57,8,2,14,0.01
2013-6-2,81.7,71.4,59.2,67.6,61.5,57.0,99,73,47,28.62,28.47,9,2,17,0.01
2013-6-3,59.0,53.2,49.6,57.0,50.9,45.9,99,92,74,28.71,28.60,4,1,7,0.00
2013-7-23,87.6,74.4,63.3,74.4,67.4,62.3,99,81,51,28.55,28.38,4,1,9,1.15
2013-7-24,76.3,61.2,48.4,62.6,54.4,48.1,99,81,46,28.73,28.49,7,1,11,1.07
2013-7-25,85.5,62.1,43.5,59.4,50.9,43.0,99,73,35,28.81,28.72,7,1,12,0.00
2013-7-26,90.1,66.8,47.5,66.4,54.7,47.2,99,72,30,28.80,28.69,4,0,9,0.00
2013-7-27,78.1,65.1,55.2,67.2,61.0,54.2,99,88,67,28.70,28.55,4,0,8,0.01
2013-7-28,75.9,72.6,70.3,54.4,53.6,51.7,54,51,49,28.64,28.64,4,2,6,0.00
2013-10-17,53.8,49.4,47.7,51.8,49.0,46.9,99,98,92,28.51,28.42,6,2,11,0.22
2013-10-18,64.0,51.1,45.3,46.9,43.3,38.8,99,77,43,28.64,28.50,8,2,14,0.05
2013-10-19,57.9,47.5,40.8,49.1,43.8,40.6,99,88,65,28.60,28.37,8,2,13,0.27
2013-10-20,59.7,47.4,36.9,44.9,39.5,36.1,99,76,49,28.67,28.55,8,2,16,0.00
2013-10-21,66.2,53.1,44.8,43.0,39.3,37.6,82,62,39,28.67,28.51,8,2,16,0.00
2013-10-25,41.3,37.5,34.5,32.6,30.3,28.0,90,74,38,29.97,28.84,5,1,12,0.00
2013-10-26,43.5,38.8,33.1,37.1,28.8,25.4,99,68,53,28.85,28.51,10,3,21,0.05
2013-10-27,45.9,37.3,28.0,39.7,34.2,26.5,99,89,68,28.75,28.58,6,1,8,0.02
2013-10-28,60.8,39.5,27.0,41.7,34.4,26.0,99,84,46,28.99,28.74,4,0,7,0.02
2013-10-29,61.0,40.4,28.2,41.1,34.1,27.5,99,82,36,29.06,28.63,4,0,6,0.00
2013-10-30,69.8,46.7,30.0,48.9,37.7,29.8,99,76,30,28.94,28.75,4,0,6,0.01
2013-10-31,65.5,58.1,50.0,61.3,56.6,48.2,99,95,80,28.76,28.24,11,2,17,0.25
2013-11-3,32.9,32.9,32.9,21.7,21.7,21.7,63,63,63,29.04,29.04,1,1,2,0.00
2013-11-4,43.2,36.2,24.4,22.6,17.1,11.0,77,47,28,29.20,29.06,6,2,11,0.00
2013-11-5,54.9,44.4,34.3,35.9,29.1,20.1,67,55,44,29.13,28.97,4,1,7,0.00
2013-11-6,71.4,53.8,39.6,56.9,44.0,23.0,99,71,47,29.04,28.33,10,2,14,0.50
2013-11-7,56.7,41.2,32.9,56.4,36.5,24.9,99,84,57,28.76,28.54,9,2,16,0.29
2013-11-8,42.8,34.8,26.8,37.4,30.3,22.9,99,85,61,28.93,28.70,8,1,11,0.23
2013-11-9,52.9,41.6,25.0,41.0,29.9,22.9,97,66,37,28.91,28.55,9,2,17,0.02
2013-11-10,50.2,43.1,35.8,41.0,34.1,28.2,95,71,61,28.89,28.55,13,3,18,0.00
2013-11-11,44.8,37.7,30.7,37.2,31.8,28.3,99,80,55,28.89,28.67,11,2,17,0.23
2013-11-12,38.7,28.9,24.4,26.5,20.8,15.5,94,73,44,29.07,28.90,4,0,9,0.00
2013-11-13,25.5,25.1,24.6,24.3,23.6,22.6,95,94,92,29.08,29.06,0,0,0,0.00
2013-11-14,51.3,38.9,25.9,23.3,18.5,12.6,66,45,26,29.03,28.77,7,2,12,3.85
2013-11-15,59.0,43.8,34.9,30.7,21.1,14.8,66,42,22,28.82,28.74,8,1,14,0.02
2013-11-16,62.4,47.4,31.1,47.5,39.6,28.1,99,75,52,28.90,28.66,5,1,12,0.00
2013-11-17,59.5,54.7,50.2,58.0,52.8,47.2,99,94,79,28.67,28.26,8,2,15,0.43
2013-11-23,35.2,18.7,17.1,17.5,13.0,9.1,86,78,33,29.01,28.87,2,0,3,0.34
2013-11-24,24.4,18.0,12.2,18.6,11.8,7.0,86,77,58,29.10,28.93,0,0,0,0.00
2013-11-25,33.6,21.9,8.2,22.9,9.9,2.1,84,62,37,29.06,28.69,5,0,9,0.00
2013-11-26,34.5,30.8,27.5,30.1,27.6,22.6,99,88,77,28.83,28.45,4,0,6,0.12
2013-11-27,31.8,26.6,20.8,30.1,22.8,14.4,99,86,62,28.69,28.39,0,0,0,0.07
2013-11-28,29.3,22.4,18.7,17.4,15.1,10.4,87,74,48,29.03,28.69,0,0,0,0.00
2013-11-29,36.5,23.5,12.9,24.6,15.8,7.9,87,73,45,29.29,29.03,2,0,4,0.00
2013-11-30,37.9,26.1,15.8,22.9,17.3,11.0,83,70,50,29.26,28.85,5,1,13,0.02
2013-12-1,42.3,26.5,19.0,29.0,21.3,14.4,92,81,58,28.86,28.70,2,0,5,0.00
2013-12-2,45.1,37.2,28.9,33.2,30.0,25.5,88,75,60,28.57,28.50,3,0,4,0.04